This is the latest recevied weather packets stored in our database for station/object WW1TA. If no packets are shown the sender has not sent any weather packets the latest 10 day(s).
| Time | Temp. | Humidity | Pressure | Rain* | Wind** | Luminosity | Snow |
|---|---|---|---|---|---|---|---|
| 1777743515 | 14.44° C | 99% | 1012.3 hPa | 1.78 mm | - | 185 W/m² | - |
| 1777742303 | 14.44° C | 99% | 1012.8 hPa | 6.6 mm | - | 148 W/m² | - |
| 1777742000 | 14.44° C | 99% | 1013.1 hPa | 3.56 mm | - | 61 W/m² | - |
| 1777741697 | 14.44° C | 99% | 1012.5 hPa | 1.27 mm | - | 102 W/m² | - |
| 1777739876 | 15° C | 99% | 1011.8 hPa | 0 mm | - | 171 W/m² | - |
| 1777739270 | 15° C | 99% | 1012 hPa | 1.78 mm | - | 229 W/m² | - |
| 1777738664 | 15° C | 99% | 1012.1 hPa | 3.05 mm | - | 198 W/m² | - |
| 1777738058 | 15° C | 99% | 1012.7 hPa | 4.32 mm | - | 103 W/m² | - |
| 1777737757 | 15° C | 99% | 1013.1 hPa | 2.29 mm | - | 95 W/m² | - |
| 1777736848 | 14.44° C | 99% | 1013.1 hPa | 1.27 mm | - | 94 W/m² | - |
| 1777736235 | 14.44° C | 99% | 1013.6 hPa | 1.78 mm | - | 86 W/m² | - |
| 1777735932 | 14.44° C | 99% | 1013.4 hPa | 1.27 mm | - | 99 W/m² | - |
| 1777735629 | 14.44° C | 99% | 1013.1 hPa | 1.78 mm | - | 77 W/m² | - |
| 1777735326 | 14.44° C | 99% | 1013.4 hPa | 2.29 mm | - | 91 W/m² | - |
| 1777735024 | 15° C | 99% | 1013.4 hPa | 2.29 mm | - | 109 W/m² | - |
| 1777734721 | 15° C | 99% | 1013.6 hPa | 1.78 mm | - | 97 W/m² | - |
| 1777734418 | 14.44° C | 99% | 1013.6 hPa | 1.78 mm | - | 78 W/m² | - |
| 1777734114 | 14.44° C | 99% | 1013.4 hPa | 1.78 mm | - | 78 W/m² | - |
| 1777733811 | 14.44° C | 99% | 1013.6 hPa | 1.78 mm | - | 86 W/m² | - |
| 1777733508 | 15° C | 99% | 1013.7 hPa | 2.29 mm | - | 65 W/m² | - |
| 1777733204 | 14.44° C | 99% | 1013.3 hPa | 2.29 mm | - | 78 W/m² | - |
| 1777732901 | 14.44° C | 99% | 1013.4 hPa | 2.29 mm | - | 59 W/m² | - |
| 1777732597 | 15° C | 99% | 1013.5 hPa | 3.05 mm | - | 50 W/m² | - |
| 1777732295 | 14.44° C | 99% | 1013.4 hPa | 4.32 mm | - | 54 W/m² | - |
| 1777731992 | 14.44° C | 99% | 1013.5 hPa | 4.32 mm | - | 78 W/m² | - |
* Rain latest hour (hover to see other rain measurements)
** Current wind speed in m/s (hover to see current wind gust speed)